• Em Portugal
  • Lista de países
  • Para 7 dias
  • Temperatura da água
  • Mapas de satélite
  • Mapa do tempo
  • Widgets de tempo
  • user-avatar
    Iniciar Sessão

    Previsão horária em Resht

    Hoje, 22 Janeiro, Segunda-feira

    Tempo Temperatura Precipitação Vento Pressão Humidade
    00:00 +14°C° 0 mm 2 m/s 764 mmHg 41%
    01:00 +14°C° 0 mm 2 m/s 764 mmHg 41%
    02:00 +14°C° 0 mm 2 m/s 764 mmHg 41%
    03:00 +13°C° 0 mm 2 m/s 764 mmHg 41%
    04:00 +13°C° 0 mm 2 m/s 764 mmHg 40%
    05:00 +13°C° 0 mm 2 m/s 764 mmHg 40%
    06:00 +13°C° 0 mm 2 m/s 764 mmHg 39%
    07:00 +14°C° 0 mm 2 m/s 764 mmHg 38%
    08:00 +16°C° 0 mm 2 m/s 763 mmHg 37%
    09:00 +18°C° 0 mm 1 m/s 763 mmHg 35%
    10:00 +19°C° 0 mm 2 m/s 762 mmHg 33%
    11:00 +20°C° 0 mm 2 m/s 761 mmHg 30%
    12:00 +22°C° 0 mm 3 m/s 761 mmHg 27%
    13:00 +22°C° 0 mm 3 m/s 760 mmHg 27%
    14:00 +22°C° 0 mm 3 m/s 759 mmHg 28%
    15:00 +22°C° 0 mm 4 m/s 759 mmHg 28%
    16:00 +21°C° 0 mm 4 m/s 759 mmHg 29%
    17:00 +19°C° 0 mm 4 m/s 759 mmHg 30%
    18:00 +18°C° 0 mm 4 m/s 758 mmHg 30%
    19:00 +18°C° 0 mm 4 m/s 758 mmHg 29%
    20:00 +17°C° 0 mm 4 m/s 758 mmHg 28%
    21:00 +17°C° 0 mm 3 m/s 758 mmHg 28%
    22:00 +17°C° 0 mm 3 m/s 758 mmHg 27%
    23:00 +17°C° 0 mm 3 m/s 758 mmHg 27%

    Amanhã, 23 Janeiro, Terça-feira

    Tempo Temperatura Precipitação Vento Pressão Humidade
    00:00 +17°C° 0 mm 3 m/s 758 mmHg 27%
    01:00 +16°C° 0 mm 3 m/s 758 mmHg 27%
    02:00 +16°C° 0 mm 3 m/s 758 mmHg 28%
    03:00 +15°C° 0 mm 4 m/s 758 mmHg 28%
    04:00 +15°C° 0 mm 4 m/s 758 mmHg 28%
    05:00 +14°C° 0 mm 4 m/s 758 mmHg 28%
    06:00 +14°C° 0 mm 4 m/s 758 mmHg 28%
    07:00 +16°C° 0 mm 3 m/s 759 mmHg 27%
    08:00 +17°C° 0 mm 3 m/s 759 mmHg 27%
    09:00 +19°C° 0 mm 3 m/s 759 mmHg 26%
    10:00 +20°C° 0 mm 3 m/s 758 mmHg 25%
    11:00 +21°C° 0 mm 3 m/s 758 mmHg 24%
    12:00 +24°C° 0 mm 3 m/s 758 mmHg 24%
    13:00 +24°C° 0 mm 3 m/s 757 mmHg 25%
    14:00 +22°C° 0 mm 3 m/s 757 mmHg 27%
    15:00 +22°C° 0 mm 3 m/s 757 mmHg 28%
    16:00 +20°C° 0 mm 2 m/s 757 mmHg 33%
    17:00 +18°C° 0 mm 2 m/s 758 mmHg 37%
    18:00 +17°C° 0 mm 2 m/s 758 mmHg 41%
    19:00 +17°C° 0 mm 2 m/s 758 mmHg 39%
    20:00 +16°C° 0 mm 2 m/s 758 mmHg 38%
    21:00 +16°C° 0 mm 2 m/s 758 mmHg 37%
    22:00 +16°C° 0 mm 2 m/s 758 mmHg 40%
    23:00 +16°C° 0 mm 2 m/s 759 mmHg 43%

    Depois de amanhã, 24 Janeiro, Quarta-feira

    Tempo Temperatura Precipitação Vento Pressão Humidade
    00:00 +16°C° 0 mm 2 m/s 759 mmHg 45%
    01:00 +16°C° 0,1 mm 2 m/s 759 mmHg 49%
    02:00 +16°C° 0,1 mm 2 m/s 759 mmHg 52%
    03:00 +16°C° 0,1 mm 2 m/s 759 mmHg 56%
    04:00 +16°C° 0,1 mm 2 m/s 760 mmHg 56%
    05:00 +16°C° 0,1 mm 2 m/s 760 mmHg 56%
    06:00 +16°C° 0,1 mm 2 m/s 760 mmHg 57%
    07:00 +16°C° 0 mm 3 m/s 761 mmHg 54%
    08:00 +17°C° 0 mm 3 m/s 761 mmHg 51%
    09:00 +18°C° 0 mm 3 m/s 761 mmHg 48%
    10:00 +19°C° 0 mm 2 m/s 761 mmHg 46%
    11:00 +19°C° 0 mm 2 m/s 761 mmHg 43%
    12:00 +20°C° 0 mm 2 m/s 761 mmHg 41%
    13:00 +20°C° 0 mm 2 m/s 761 mmHg 43%
    14:00 +19°C° 0 mm 2 m/s 761 mmHg 45%
    15:00 +18°C° 0 mm 2 m/s 761 mmHg 47%
    16:00 +17°C° 0 mm 2 m/s 762 mmHg 54%
    17:00 +16°C° 0 mm 2 m/s 763 mmHg 62%
    18:00 +14°C° 0 mm 1 m/s 763 mmHg 69%
    19:00 +14°C° 0 mm 1 m/s 764 mmHg 72%
    20:00 +13°C° 0 mm 1 m/s 764 mmHg 75%
    21:00 +13°C° 0 mm 1 m/s 764 mmHg 78%
    22:00 +12°C° 0 mm 1 m/s 765 mmHg 81%
    23:00 +12°C° 0 mm 1 m/s 765 mmHg 83%

    25 Janeiro, Quinta-feira

    Tempo Temperatura Precipitação Vento Pressão Humidade
    00:00 +12°C° 0 mm 2 m/s 765 mmHg 86%
    01:00 +10°C° 0 mm 2 m/s 765 mmHg 88%
    02:00 +10°C° 0 mm 2 m/s 766 mmHg 91%
    03:00 +10°C° 0 mm 2 m/s 766 mmHg 93%
    04:00 +10°C° 0,1 mm 2 m/s 766 mmHg 94%
    05:00 +10°C° 0,1 mm 2 m/s 767 mmHg 94%
    06:00 +10°C° 0,1 mm 3 m/s 767 mmHg 94%
    07:00 +10°C° 0,1 mm 3 m/s 767 mmHg 94%
    08:00 +10°C° 0,1 mm 3 m/s 768 mmHg 93%
    09:00 +10°C° 0,1 mm 3 m/s 768 mmHg 92%
    10:00 +10°C° 0,1 mm 3 m/s 768 mmHg 91%
    11:00 +10°C° 0,1 mm 3 m/s 767 mmHg 90%
    12:00 +10°C° 0,1 mm 3 m/s 767 mmHg 89%
    13:00 +10°C° 0,1 mm 3 m/s 767 mmHg 89%
    14:00 +10°C° 0,1 mm 3 m/s 767 mmHg 89%
    15:00 +10°C° 0,1 mm 3 m/s 766 mmHg 90%
    16:00 +10°C° 0,1 mm 3 m/s 767 mmHg 91%
    17:00 +9°C° 0,1 mm 3 m/s 767 mmHg 92%
    18:00 +9°C° 0,1 mm 3 m/s 767 mmHg 93%
    19:00 +9°C° 0,1 mm 3 m/s 768 mmHg 93%
    20:00 +9°C° 0,1 mm 3 m/s 768 mmHg 93%
    21:00 +9°C° 0,1 mm 2 m/s 768 mmHg 93%
    22:00 +9°C° 0,1 mm 2 m/s 768 mmHg 93%
    23:00 +9°C° 0,1 mm 2 m/s 768 mmHg 93%

    26 Janeiro, Sexta-feira

    Tempo Temperatura Precipitação Vento Pressão Humidade
    00:00 +9°C° 0,1 mm 2 m/s 767 mmHg 93%
    01:00 +9°C° 0,2 mm 2 m/s 768 mmHg 93%
    02:00 +9°C° 0,2 mm 2 m/s 768 mmHg 94%
    03:00 +9°C° 0,2 mm 2 m/s 768 mmHg 94%
    04:00 +9°C° 0,2 mm 3 m/s 768 mmHg 94%
    05:00 +9°C° 0,2 mm 3 m/s 768 mmHg 95%
    06:00 +9°C° 0,2 mm 3 m/s 767 mmHg 95%
    07:00 +9°C° 0,2 mm 3 m/s 767 mmHg 94%
    08:00 +9°C° 0,2 mm 3 m/s 767 mmHg 93%
    09:00 +9°C° 0,2 mm 3 m/s 767 mmHg 92%
    10:00 +9°C° 0,1 mm 3 m/s 766 mmHg 90%
    11:00 +10°C° 0,1 mm 3 m/s 766 mmHg 88%
    12:00 +10°C° 0,1 mm 3 m/s 765 mmHg 85%
    13:00 +10°C° 0,1 mm 3 m/s 765 mmHg 86%
    14:00 +10°C° 0,1 mm 3 m/s 764 mmHg 87%
    15:00 +10°C° 0,1 mm 3 m/s 764 mmHg 88%
    16:00 +10°C° 0,4 mm 3 m/s 764 mmHg 89%
    17:00 +9°C° 0,4 mm 3 m/s 765 mmHg 91%
    18:00 +9°C° 0,4 mm 3 m/s 765 mmHg 92%
    19:00 +9°C° 1,6 mm 3 m/s 765 mmHg 92%
    20:00 +9°C° 1,6 mm 3 m/s 765 mmHg 93%
    21:00 +9°C° 1,6 mm 3 m/s 765 mmHg 93%
    22:00 +8°C° 2,1 mm 3 m/s 765 mmHg 94%
    23:00 +8°C° 2,1 mm 3 m/s 765 mmHg 95%

    27 Janeiro, Sábado

    Tempo Temperatura Precipitação Vento Pressão Humidade
    00:00 +8°C° 2,1 mm 3 m/s 765 mmHg 95%
    01:00 +8°C° 1,8 mm 3 m/s 765 mmHg 95%
    02:00 +8°C° 1,8 mm 3 m/s 765 mmHg 96%
    03:00 +8°C° 1,8 mm 3 m/s 765 mmHg 96%
    04:00 +7°C° 1,6 mm 3 m/s 765 mmHg 96%
    05:00 +7°C° 1,6 mm 3 m/s 766 mmHg 96%
    06:00 +7°C° 1,6 mm 3 m/s 766 mmHg 96%
    07:00 +7°C° 1,6 mm 3 m/s 766 mmHg 96%
    08:00 +7°C° 1,6 mm 3 m/s 766 mmHg 95%
    09:00 +6°C° 1,6 mm 4 m/s 767 mmHg 95%
    10:00 +6°C° 1,6 mm 4 m/s 767 mmHg 94%
    11:00 +7°C° 1,6 mm 3 m/s 767 mmHg 93%
    12:00 +7°C° 1,6 mm 3 m/s 767 mmHg 93%
    13:00 +6°C° 1,3 mm 4 m/s 767 mmHg 92%
    14:00 +6°C° 1,3 mm 4 m/s 767 mmHg 92%
    15:00 +6°C° 1,3 mm 4 m/s 767 mmHg 92%
    16:00 +5°C° 1,2 mm 4 m/s 768 mmHg 92%
    17:00 +5°C° 1,2 mm 4 m/s 768 mmHg 93%
    18:00 +5°C° 1,2 mm 4 m/s 768 mmHg 93%
    19:00 +5°C° 1,1 mm 4 m/s 769 mmHg 93%
    20:00 +5°C° 1,1 mm 4 m/s 769 mmHg 94%
    21:00 +5°C° 1,1 mm 4 m/s 769 mmHg 94%
    22:00 +5°C° 0,8 mm 4 m/s 769 mmHg 94%
    23:00 +4°C° 0,8 mm 4 m/s 769 mmHg 94%
    Mostrar mais